Preview of NWS' New Version of Forecast
This preview is not operational and should not be used for support decisions.
Latest weather observations around

Camp Springs / Andrews Air Force Base (KADW)

Using English Units (Switch to International System of Units)
Date/ Time (EDT) Wind (mph) Vis. (mi) Weather Sky Cond. Temp (°F) Rel. Humidity Wind Chill (°F) Heat Index (°F) Pressure Precip. (in)
Air Dwpt 6 hour Altimeter (inHg) Sea level (inHg) 1 hr 3 hr 6 hr
Max Min
Mar 26 02:11 N 5 10 Mostly Cloudy SCT015 BKN022 41 36     81% 38   30.09 30.11      
Mar 26 01:56 NNE 11 10 Cloudy BKN015 OVC035 42 36     80% 35   30.08 30.1      
Mar 26 01:46   10 Cloudy BKN015 OVC035 43 36     76%     30.08 30.1      
Mar 26 00:56 NNE 10 10 Cloudy SCT016 OVC031 42 36     78% 36   30.08 30.1      
Mar 26 00:51 NNE 10 10 Cloudy SCT016 OVC031 43 36     76% 37   30.08 30.1      
Mar 26 00:36 NNE 10 10 Cloudy OVC016 43 36     76% 37   30.08 30.1      
Mar 25 23:56 NNE 14 10 Cloudy OVC012 43 38     83% 36   30.07 30.09      
Mar 25 22:56   10 Cloudy OVC012 44 39     84%     30.06 30.08      
Mar 25 22:11 NNE 11 10 Cloudy BKN014 OVC055 45 39     81% 39   30.05 30.07      
Mar 25 21:56 NNE 13 10 Mostly Cloudy SCT013 BKN055 44 39     83% 38   30.05 30.07      
Mar 25 20:56 NNE 14 10 Mostly Cloudy FEW014 BKN055 45 40     82% 38   30.03 30.05      
Mar 25 19:56 NNE 15 10 Cloudy FEW060 OVC075 46 40     78% 40   30.02 30.04 0   0
Mar 25 19:17 NNE 15 10 Partly Cloudy SCT060 48 39     71% 42   30.01 30.03      
Mar 25 18:59 NNE 15 10 Light Drizzle BKN060 50 39     66%     30.01 30.03      
Mar 25 18:56 NNE 13 10 Cloudy OVC060 51 40     66%     30.01 30.03      
Mar 25 17:56 NE 14 10 Partly Cloudy SCT070 54 39     56%     29.98 30      
Mar 25 16:56 NE 14 10 Mostly Clear FEW120 FEW140 58 36     45%     29.95 29.97      
Mar 25 15:56 NE 9 10 Clear CLR 58 37     45%     29.98 30      
Mar 25 14:56 ENE 11 10 Mostly Clear FEW160 FEW180 60 37     43%     29.97 29.99      
Mar 25 13:56 E 7 10 Partly Cloudy FEW110 FEW160 SCT180 62 37     39%     29.99 30.01      
Notice The following observation data may not be complete
Mar 25 12:56   10 Partly Cloudy FEW120 SCT140 SCT180          %              
Mar 25 11:56 Calm 10 Partly Cloudy FEW080 FEW130 FEW150 SCT170 62 36     39%     30.01 30.03      
Mar 25 09:56 E 9 10 Clear CLR 58 37     45%     30.01 30.03      
Mar 25 08:56 E 5 10 Clear CLR 53 38     56%     30.03 30.05      
Mar 25 07:56 N 3 10 Clear   42 37     80% 41   30.02 30.04      
Mar 25 06:56 NE 3 10 Clear CLR 44 36     74% 43   30.01 30.03      
Mar 25 05:56 NE 3 10 Cloudy OVC120 44 38     78% 43   30.01 30.03      
Mar 25 04:56 N 3 10 Cloudy SCT100 OVC120 45 38     77% 44   30.01 30.03      
Mar 25 03:56 Calm 10 Cloudy OVC100 47 37     68%     30.02 30.04      
Mar 25 02:56 Calm 10 Cloudy OVC110 46 38     72%     30.03 30.05      
Mar 25 01:56 NE 6 10 Cloudy OVC120 46 37     71% 43   30.04 30.06      
Mar 24 23:56 Calm 10 Clear CLR 51 33     51%     30.05 30.07      
Mar 24 22:56 SSE 3 10 Clear CLR 51 34     52%     30.06 30.08      
Mar 24 21:56 SSE 3 10 Clear CLR 52 32     45%     30.07 30.09      
Mar 24 20:56 SE 8 10 Clear CLR 52 32     47%     30.07 30.09      
Mar 24 17:56 SSW 11 10 Partly Cloudy SCT150 63 22     21%     30.08 30.1      
Mar 24 16:56 S 15 10 Partly Cloudy SCT160 SCT180 63 22     21%     30.08 30.1      
Mar 24 15:56 SW 10 10 Clear CLR 63 24     22%     30.1 30.12      
Mar 24 15:53 SSW 11 10 Clear CLR 63 23     22%     30.1 30.12      
Mar 24 14:56 SSW 9 10 Clear CLR 63 20     19%     30.13 30.15      
Mar 24 13:56 WSW 11 10 Partly Cloudy SCT150 61 21     21%     30.18 30.2      
Mar 24 11:56 SW 6 10 Mostly Clear FEW150 58 21     24%     30.26 30.28      
Mar 24 10:56 SW 10 10 Clear CLR 55 22     27%     30.28 30.3      
Mar 24 09:56 SW 9 10 Clear CLR 50 23     34%     30.3 30.32      
Mar 24 08:56 SW 7 10 Clear CLR 45 25     45% 42   30.3 30.32      
Mar 24 07:56 SW 8 10 Clear CLR 33 23     67% 26   30.3 30.32      
Mar 24 06:56 SW 5 10 Clear CLR 30 22     71% 25   30.28 30.31      
Mar 24 03:56 Calm 10 Clear CLR 33 22     64%     30.25 30.27      
Mar 24 02:56 SSW 3 10 Clear CLR 34 19     54% 32   30.26 30.29      
Mar 24 00:56 Calm 10 Clear CLR 36 22     57%     30.24 30.27      
Mar 23 23:56 W 3 10 Clear CLR 42 16     34% 41   30.24 30.27      
Mar 23 22:56 WNW 6 10 Clear CLR 44 17     33% 40   30.24 30.27      
Mar 23 21:56 W 7 10 Clear CLR 45 17     33% 41   30.23 30.26      
Mar 23 20:56 W 6 10 Clear CLR 46 16     29% 43   30.22 30.24      
Mar 23 19:56 NW 6 10 Clear CLR 48 15     26% 46   30.2 30.22      
Mar 23 18:56 NW 14 10 Clear CLR 50 15     25% 44   30.18 30.2      
Mar 23 14:56 WNW 15 10 Clear CLR 48 18     29% 43   30.12 30.14      
Notice The following observation data may not be complete
Mar 23 14:24   10 Clear CLR          %              
Notice The following observation data may not be complete
Mar 23 14:20   10 Clear CLR          %              
Notice The following observation data may not be complete
Mar 23 13:56   10 Clear CLR          %              
Mar 23 12:56 WNW 17 10 Clear CLR 45 19     35% 38   30.12 30.14      
Mar 23 11:56 WNW 17 10 Clear   42 19     38% 34   30.11 30.14      
Mar 23 10:56 WNW 15 10 Clear CLR 41 21     44% 33   30.1 30.13      
Mar 23 09:56 WNW 18 10 Clear CLR 39 20     47% 29   30.07 30.09      
Mar 23 08:56 W 14 10 Clear CLR 37 22     53% 29   30.04 30.06      
Mar 23 07:56 WNW 14 10 Clear CLR 36 21     56% 27   30 30.03      
Notice The following observation data may not be complete
Mar 23 06:56   10 Clear CLR          %              
Mar 23 05:56 NW 18 10 Clear CLR 36 22     57% 25   29.93 29.96      
Mar 23 03:56 WNW 16 10 Clear CLR 37 22     55% 27   29.87 29.89      
Mar 23 02:56 WNW 14 10 Clear CLR 37 23     55% 29   29.85 29.87      
Mar 23 01:56 WNW 17 10 Clear CLR 38 24     57% 29   29.84 29.86      
May 14 21:08 SE 13 10 Light Rain OVC032 66 64     94%     29.94 29.96      
May 14 20:01 NNE 9 3 Heavy Rain and Fog/Mist OVC023 66 64     94%     29.99 30.01      
May 14 19:52   4 Heavy Rain and Fog/Mist OVC018 66 64     94%     29.99 30.01      
May 14 19:39 NNW 14 1.88 Thunderstorms and Heavy Rain and Fog/Mist OVC012 66 64     94%     30 30.02      
May 14 19:12   8 Thunderstorms and Heavy Rain FEW004 72 66     83%   72 29.98 30      
May 14 18:57 ESE 6 10 Light Rain FEW120 72 68     88%   73 29.93 29.95      
May 13 19:58 E 7 10 Cloudy OVC005 61 59     94%     30.02 30.04      
May 13 13:30 E 11 10 Clear   66 64     94%     30.06 30.08      
May 13 09:56 ENE 7 10 Cloudy OVC005 65 65     98%     30.09 30.11 0    
May 13 07:17 NE 3 10 Mostly Cloudy BKN003 63 63     100%     30.06 30.07      
May 13 07:16 ENE 5 10 Light Rain BKN003 63 63     100%     30.06 30.07      
May 13 05:26   5 Heavy Rain and Fog/Mist OVC006 64 63     94%     30.09 30.1      
May 12 20:56   10 Thunderstorms and Rain FEW090 75 68     81%   76   29.98 0    
May 12 08:56 ENE 5 10 Clear   69 62     78%     30.07 30.09      
May 11 20:56 ESE 6 10 Mostly Clear FEW080 71 53     54%   70 30.04 30.06      
Jun 11 17:58 SW 11 10 Clear   90 62     38%   91 30.07 30.08      
Jun 11 15:58 SSW 11 10 Clear CLR 92 58     33%   91 30.09 30.1      
Jun 09 00:58 Calm 10 Clear CLR 53 50     88%     29.82 29.84      
Notice The following observation data may not be complete
Jun 08 01:58   10 Clear CLR          %              
Jun 07 23:58 N 5 10 Clear CLR 53 50     88%     30.04 30.06      
Notice The following observation data may not be complete
Jun 07 18:58   10 Cloudy OVC038          %              
Jun 07 16:18 ENE 8 10 Mostly Cloudy BKN029 BKN200 64 54     68%     29.99 30.01      
Jun 07 15:48 ENE 11 10 Mostly Cloudy SCT023 BKN031 BKN160 64 54     68%     29.99 30.01      
Notice The following observation data may not be complete
Jun 07 13:23   10 Mostly Cloudy FEW022 BKN030          %              
Jun 07 11:13 E 9 10 Cloudy OVC014 61 55     82%     29.97 29.99      
Jun 07 09:18 E 9 10 Cloudy BKN014 OVC024 61 55     82%     29.95 29.97      
Jun 06 04:19 W 6 1.25 Fog/Mist SCT001 64 64     100%     29.66 29.67      
Jun 06 04:17 W 6 0.75 Fog/Mist VV001 64 64     100%     29.66 29.67      
Jun 06 01:10 Calm 1.25 Fog/Mist FEW041 63 63     100%     29.68 29.7      
Jun 06 00:57 Calm 0.75 Fog/Mist FEW065 63 63     100%     29.69 29.7